Total_Precipitation_Accumulation
0.00 0.00 0.00 0.00 0.00 0.00 0.00 0.00 0.00 0.00 0.00 0.00 0.00 0.00 0.00 0.00 0.00 0.00 0.00 0.00 0.00 0.01 0.02 0.02 0.02 0.03 0.03 0.04 0.06 0.07 0.08 0.09 0.10 0.11 0.11 0.11 0.11 0.11
0.00 0.00 0.00 0.00 0.00 0.00 0.00 0.00 0.00 0.00 0.00 0.00 0.00 0.00 0.00 0.00 0.00 0.00 0.00 0.00 0.01 0.01 0.02 0.02 0.02 0.02 0.03 0.04 0.06 0.08 0.10 0.12 0.14 0.16 0.17 0.19 0.19 0.19
0.00 0.00 0.00 0.00 0.00 0.00 0.00 0.00 0.00 0.00 0.00 0.00 0.00 0.00 0.00 0.00 0.00 0.00 0.00 0.01 0.01 0.01 0.01 0.01 0.01 0.03 0.04 0.07 0.08 0.10 0.11 0.11 0.13 0.16 0.18 0.21 0.23 0.24
0.00 0.00 0.00 0.00 0.00 0.00 0.00 0.00 0.00 0.00 0.00 0.01 0.00 0.00 0.00 0.00 0.00 0.00 0.00 0.00 0.00 0.00 0.00 0.01 0.02 0.03 0.05 0.06 0.07 0.09 0.12 0.14 0.16 0.16 0.17 0.18 0.19 0.21
0.00 0.00 0.00 0.00 0.00 0.00 0.00 0.00 0.00 0.00 0.01 0.01 0.00 0.00 0.00 0.01 0.01 0.00 0.00 0.00 0.00 0.00 0.00 0.00 0.01 0.03 0.05 0.06 0.08 0.09 0.09 0.08 0.08 0.08 0.08 0.09 0.09 0.11
0.00 0.00 0.00 0.00 0.00 0.00 0.00 0.00 0.00 0.00 0.01 0.02 0.04 0.03 0.02 0.01 0.00 0.00 0.00 0.00 0.00 0.00 0.00 0.00 0.01 0.02 0.02 0.02 0.02 0.02 0.02 0.03 0.04 0.05 0.06 0.07 0.07 0.08
0.00 0.00 0.00 0.00 0.00 0.00 0.01 0.01 0.01 0.03 0.06 0.09 0.08 0.05 0.02 0.00 0.00 0.00 0.01 0.01 0.00 0.00 0.00 0.00 0.00 0.00 0.00 0.00 0.00 0.01 0.01 0.03 0.05 0.08 0.10 0.12 0.13 0.14
0.00 0.00 0.00 0.00 0.00 0.00 0.01 0.02 0.05 0.11 0.13 0.12 0.08 0.03 0.01 0.00 0.01 0.02 0.04 0.04 0.02 0.00 0.00 0.00 0.00 0.00 0.00 0.00 0.00 0.01 0.02 0.04 0.06 0.08 0.10 0.11 0.12 0.12
0.00 0.00 0.00 0.00 0.00 0.00 0.00 0.04 0.08 0.08 0.07 0.05 0.02 0.01 0.01 0.02 0.04 0.06 0.05 0.05 0.03 0.01 0.01 0.01 0.00 0.00 0.00 0.00 0.00 0.01 0.02 0.03 0.05 0.06 0.08 0.10 0.10 0.10
0.00 0.00 0.00 0.00 0.00 0.02 0.06 0.10 0.05 0.02 0.01 0.01 0.01 0.01 0.02 0.02 0.03 0.06 0.06 0.05 0.02 0.00 0.00 0.01 0.00 0.00 0.00 0.00 0.00 0.00 0.01 0.02 0.04 0.06 0.08 0.10 0.12 0.14
0.00 0.00 0.00 0.01 0.02 0.06 0.08 0.05 0.01 0.00 0.00 0.01 0.02 0.01 0.01 0.01 0.02 0.04 0.07 0.08 0.04 0.00 0.00 0.00 0.00 0.00 0.00 0.00 0.00 0.00 0.00 0.01 0.02 0.03 0.05 0.06 0.08 0.10
0.00 0.00 0.00 0.01 0.04 0.07 0.04 0.02 0.01 0.00 0.01 0.01 0.00 0.00 0.00 0.00 0.00 0.02 0.09 0.19 0.13 0.06 0.00 0.03 0.04 0.05 0.09 0.01 0.00 0.00 0.00 0.00 0.00 0.01 0.02 0.04 0.06 0.10
0.00 0.00 0.00 0.02 0.04 0.04 0.03 0.01 0.01 0.03 0.02 0.01 0.00 0.00 0.00 0.00 0.00 0.00 0.03 0.21 0.28 0.15 0.02 0.12 0.17 0.08 0.12 0.05 0.00 0.00 0.00 0.00 0.01 0.01 0.01 0.03 0.07 0.16
0.01 0.00 0.01 0.02 0.03 0.01 0.00 0.01 0.02 0.02 0.00 0.00 0.00 0.00 0.00 0.00 0.00 0.00 0.01 0.03 0.12 0.17 0.08 0.17 0.28 0.18 0.18 0.11 0.02 0.00 0.00 0.00 0.02 0.03 0.04 0.07 0.12 0.18
0.01 0.02 0.01 0.01 0.01 0.00 0.00 0.00 0.00 0.00 0.00 0.01 0.01 0.00 0.00 0.00 0.00 0.00 0.01 0.00 0.01 0.01 0.02 0.05 0.16 0.19 0.22 0.20 0.11 0.03 0.02 0.01 0.01 0.05 0.10 0.14 0.18 0.23
0.01 0.01 0.00 0.00 0.00 0.00 0.00 0.00 0.00 0.00 0.01 0.03 0.02 0.00 0.00 0.00 0.00 0.01 0.02 0.02 0.02 0.00 0.00 0.01 0.05 0.17 0.20 0.13 0.16 0.12 0.08 0.11 0.08 0.12 0.16 0.14 0.16 0.25
0.01 0.00 0.00 0.00 0.00 0.00 0.00 0.00 0.00 0.00 0.00 0.01 0.02 0.02 0.01 0.00 0.00 0.01 0.03 0.04 0.04 0.02 0.01 0.00 0.00 0.03 0.08 0.09 0.10 0.07 0.07 0.12 0.19 0.24 0.24 0.18 0.12 0.21
0.01 0.00 0.00 0.00 0.00 0.00 0.00 0.00 0.00 0.00 0.01 0.02 0.03 0.04 0.04 0.03 0.02 0.01 0.02 0.04 0.05 0.03 0.03 0.02 0.02 0.03 0.01 0.01 0.06 0.13 0.15 0.18 0.19 0.19 0.24 0.31 0.22 0.19
0.00 0.00 0.00 0.00 0.00 0.00 0.01 0.02 0.01 0.01 0.02 0.03 0.05 0.06 0.08 0.05 0.03 0.03 0.03 0.03 0.03 0.02 0.02 0.03 0.06 0.12 0.11 0.05 0.02 0.10 0.23 0.21 0.17 0.20 0.28 0.45 0.54 0.40
0.00 0.00 0.00 0.00 0.01 0.01 0.02 0.02 0.02 0.02 0.02 0.03 0.05 0.07 0.09 0.08 0.06 0.05 0.05 0.06 0.07 0.04 0.02 0.02 0.05 0.14 0.25 0.22 0.13 0.08 0.11 0.21 0.29 0.35 0.34 0.31 0.33 0.28
0.00 0.00 0.00 0.01 0.01 0.02 0.03 0.03 0.03 0.04 0.04 0.06 0.07 0.08 0.11 0.12 0.08 0.06 0.06 0.05 0.05 0.06 0.05 0.03 0.03 0.07 0.11 0.10 0.07 0.05 0.05 0.10 0.25 0.42 0.39 0.26 0.17 0.13
0.00 0.00 0.00 0.01 0.02 0.03 0.03 0.03 0.03 0.03 0.04 0.06 0.08 0.09 0.11 0.13 0.13 0.09 0.07 0.08 0.06 0.07 0.06 0.03 0.02 0.02 0.03 0.06 0.06 0.04 0.03 0.02 0.06 0.11 0.25 0.46 0.61 0.74
0.00 0.01 0.01 0.01 0.03 0.04 0.04 0.03 0.03 0.04 0.06 0.09 0.10 0.10 0.12 0.12 0.09 0.08 0.08 0.11 0.11 0.08 0.04 0.02 0.01 0.01 0.01 0.03 0.04 0.04 0.03 0.03 0.03 0.05 0.12 0.25 0.46 0.67